Weather History for Hallock, MN

Change the Weather History Date:

Thursday, January 16, 2014

  Actual Average Record
Temperature  
Mean Temperature 10 °F -  
Max Temperature 24 °F 10 °F 40 °F (1942)
Min Temperature -5 °F -10 °F -36 °F (1971)
Degree Days  
Heating Degree Days 56    
Moisture  
Dew Point -1 °F    
Average Humidity 78    
Maximum Humidity 93    
Minimum Humidity 71    
Precipitation  
Precipitation 0.00 in - - ()
Sea Level Pressure  
Sea Level Pressure 29.82 in    
Wind  
Wind Speed 30 mph (NNW)    
Max Wind Speed 38 mph    
Max Gust Speed 54 mph    
Visibility 3 miles    
Events Snow    
Averages and records for this station are not official NWS values.
T = Trace of Precipitation, MM = Missing Value Source: NWS Daily Summary

Daily Weather History Graph

Daily Weather History Graph

Search for Another Location

Airport:

Trip Planner

Search our weather history database for the weather conditions in past years. The results will help you decide how hot, cold, wet, or windy it might be!

Date:

Astronomy

Jan. 16, 2014 Rise Set
Actual Time 8:14 AM CST 5:00 PM CST
Civil Twilight 7:39 AM CST 5:36 PM CST
Nautical Twilight 6:59 AM CST 6:15 PM CST
Astronomical Twilight 6:22 AM CST 6:53 PM CST
Moon 6:02 PM CST (1/16) 8:01 AM CST (1/16)
Length of Visible Light 9h 57m
Length of Day
8h 46m
Full, 100% of the Moon is Illuminated
Jan 16
Full
Jan 23
Last Quarter
Jan 30
New
Feb 6
First Quarter
Feb 14
Full

Hourly Weather History & Observations

Time (CST) Temp. Windchill Dew Point Humidity Pressure Visibility Wind Dir Wind Speed Gust Speed Precip Events Conditions
12:13 AM 24.8 °F 7.3 °F 21.2 °F 86% 29.28 in 0.8 mi NNW 32.2 mph 41.4 mph N/A Snow Light Snow
12:33 AM 23.0 °F 4.1 °F 19.4 °F 86% 29.31 in 0.8 mi NNW 35.7 mph 46.0 mph N/A Snow Light Snow
12:50 AM 21.2 °F 3.9 °F 19.4 °F 93% 29.34 in 1.0 mi NNW 26.5 mph 39.1 mph N/A Snow Light Snow
1:13 AM 17.6 °F -3.6 °F 14.0 °F 86% 29.35 in 0.2 mi NNW 36.8 mph 47.2 mph N/A Snow Snow
1:33 AM 17.6 °F -3.3 °F 12.2 °F 79% 29.37 in 0.5 mi NNW 35.7 mph 47.2 mph N/A Snow Heavy Snow
1:53 AM 15.8 °F -6.3 °F 10.4 °F 79% 29.38 in 0.5 mi NNW 38.0 mph 49.5 mph N/A Snow Snow
2:13 AM 15.8 °F -5.0 °F 10.4 °F 79% 29.39 in 0.8 mi NNW 32.2 mph 44.9 mph N/A Snow Light Snow
2:34 AM 14.0 °F -8.8 °F 8.6 °F 79% 29.41 in 0.5 mi NNW 38.0 mph 54.1 mph N/A Snow Snow
2:53 AM 12.2 °F -9.9 °F 8.6 °F 85% 29.44 in 0.5 mi NNW 32.2 mph 49.5 mph N/A Snow Heavy Snow
3:13 AM 12.2 °F -8.2 °F 6.8 °F 79% 29.46 in 1.0 mi NNW 26.5 mph 41.4 mph N/A Snow Light Snow
3:34 AM 10.4 °F -12.3 °F 5.0 °F 79% 29.48 in 1.0 mi NNW 32.2 mph 41.4 mph N/A Snow Light Snow
3:53 AM 8.6 °F -15.1 °F 3.2 °F 79% 29.49 in 1.2 mi NNW 33.4 mph 43.7 mph N/A Snow Light Snow
4:13 AM 8.6 °F -14.5 °F 1.4 °F 73% 29.51 in 1.5 mi NNW 31.1 mph 42.6 mph N/A Snow Light Snow
4:34 AM 6.8 °F -18.5 °F 1.4 °F 79% 29.52 in 0.8 mi NNW 36.8 mph 46.0 mph N/A Snow Light Snow
4:53 AM 6.8 °F -16.2 °F 1.4 °F 79% 29.54 in 0.8 mi NNW 28.8 mph 46.0 mph N/A Snow Snow
5:13 AM 6.8 °F -15.5 °F 1.4 °F 79% 29.56 in 0.8 mi NNW 26.5 mph 33.4 mph N/A Snow Snow
5:34 AM 6.8 °F -16.2 °F 1.4 °F 79% 29.57 in 0.8 mi NNW 28.8 mph 35.7 mph N/A Snow Light Snow
5:53 AM 5.0 °F -19.7 °F -0.4 °F 78% 29.59 in 0.5 mi NNW 32.2 mph 43.7 mph N/A Snow Snow
6:13 AM 5.0 °F -19.4 °F -0.4 °F 78% 29.60 in 0.5 mi NNW 31.1 mph 40.3 mph N/A Snow Snow
6:34 AM 3.2 °F -21.5 °F -0.4 °F 85% 29.61 in 0.5 mi NNW 29.9 mph 42.6 mph N/A Snow Snow
6:53 AM 3.2 °F -21.1 °F -0.4 °F 85% 29.64 in 0.8 mi NNW 28.8 mph 39.1 mph N/A Snow Light Snow
7:13 AM 3.2 °F -23.8 °F -0.4 °F 85% 29.65 in 0.2 mi NNW 38.0 mph 46.0 mph N/A Snow Snow
7:33 AM 3.2 °F -23.5 °F -2.2 °F 78% 29.66 in 0.8 mi NNW 36.8 mph 42.6 mph N/A Snow Snow
7:54 AM 3.2 °F -22.5 °F -2.2 °F 78% 29.68 in 0.5 mi NNW 33.4 mph 42.6 mph N/A Snow Snow
8:13 AM 3.2 °F -23.5 °F -2.2 °F 78% 29.69 in 0.2 mi NNW 36.8 mph 44.9 mph N/A Snow Snow
8:33 AM 3.2 °F -22.5 °F -2.2 °F 78% 29.70 in 0.2 mi NNW 33.4 mph 42.6 mph N/A Snow Snow
8:53 AM 3.2 °F -23.5 °F -2.2 °F 78% 29.72 in 0.2 mi NNW 36.8 mph 46.0 mph N/A Snow Snow
9:13 AM 1.4 °F -23.9 °F -2.2 °F 85% 29.74 in 0.5 mi NNW 29.9 mph 41.4 mph N/A Snow Light Snow
9:33 AM 3.2 °F -20.3 °F -2.2 °F 78% 29.76 in 0.2 mi NNW 26.5 mph 36.8 mph N/A Snow Light Snow
9:53 AM 1.4 °F -22.7 °F -2.2 °F 85% 29.79 in 0.2 mi NNW 26.5 mph 41.4 mph N/A Snow Light Snow
10:13 AM 1.4 °F -24.6 °F -2.2 °F 85% 29.80 in 0.2 mi NNW 32.2 mph 43.7 mph N/A Snow Heavy Snow
10:33 AM 1.4 °F -25.0 °F -2.2 °F 85% 29.82 in 0.2 mi NNW 33.4 mph 44.9 mph N/A Snow Snow
10:53 AM 1.4 °F -26.0 °F -2.2 °F 85% 29.83 in 0.2 mi NNW 36.8 mph 44.9 mph N/A Snow Snow
11:13 AM 1.4 °F -25.0 °F -2.2 °F 85% 29.84 in 0.2 mi North 33.4 mph 46.0 mph N/A Snow Snow
11:33 AM 1.4 °F -24.6 °F -2.2 °F 85% 29.85 in 0.2 mi NNW 32.2 mph 43.7 mph N/A Snow Snow
11:54 AM 3.2 °F -21.1 °F -2.2 °F 78% 29.87 in 0.2 mi NNW 28.8 mph 40.3 mph N/A Snow Light Snow
12:13 PM 3.2 °F -21.8 °F -2.2 °F 78% 29.87 in 0.2 mi NNW 31.1 mph 38.0 mph N/A Snow Snow
12:33 PM 3.2 °F -22.2 °F -2.2 °F 78% 29.87 in 0.2 mi NNW 32.2 mph 39.1 mph N/A Snow Light Snow
12:54 PM 3.2 °F -22.2 °F -2.2 °F 78% 29.88 in 0.5 mi NNW 32.2 mph 39.1 mph N/A   Haze
1:13 PM 3.2 °F -21.1 °F -2.2 °F 78% 29.89 in 0.5 mi NNW 28.8 mph 34.5 mph N/A Snow Light Snow
1:33 PM 3.2 °F -20.7 °F -0.4 °F 85% 29.90 in 0.2 mi NNW 27.6 mph 35.7 mph N/A Snow Light Snow
1:54 PM 3.2 °F -21.5 °F -2.2 °F 78% 29.91 in 0.2 mi NNW 29.9 mph 36.8 mph N/A Snow Light Snow
2:13 PM 3.2 °F -21.1 °F -2.2 °F 78% 29.93 in 0.5 mi NNW 28.8 mph 36.8 mph N/A Snow Light Snow
2:33 PM 3.2 °F -19.5 °F -2.2 °F 78% 29.95 in 0.8 mi NNW 24.2 mph 34.5 mph N/A   Haze
2:53 PM 3.2 °F -20.3 °F -2.2 °F 78% 29.96 in 1.0 mi NNW 26.5 mph 32.2 mph N/A   Haze
3:13 PM 3.2 °F -18.6 °F -2.2 °F 78% 29.97 in 1.0 mi NNW 21.9 mph 36.8 mph N/A   Haze
3:33 PM 3.2 °F -19.9 °F -2.2 °F 78% 29.98 in 1.0 mi NNW 25.3 mph 34.5 mph N/A   Haze
3:53 PM 3.2 °F -19.9 °F -2.2 °F 78% 30.00 in 0.8 mi NNW 25.3 mph 35.7 mph N/A Snow Light Snow
4:13 PM 3.2 °F -20.3 °F -4.0 °F 72% 30.01 in 1.0 mi NNW 26.5 mph 33.4 mph N/A   Haze
4:33 PM 1.4 °F -21.4 °F -4.0 °F 78% 30.03 in 1.8 mi NNW 23.0 mph 33.4 mph N/A   Haze
4:53 PM 1.4 °F -21.0 °F -5.8 °F 72% 30.05 in 2.5 mi NNW 21.9 mph 32.2 mph N/A   Haze
5:13 PM 1.4 °F -21.0 °F -5.8 °F 72% 30.06 in 3.0 mi NNW 21.9 mph 25.3 mph N/A   Haze
5:33 PM 1.4 °F -21.0 °F -5.8 °F 72% 30.07 in 4.0 mi NNW 21.9 mph 27.6 mph N/A   Haze
5:53 PM -0.4 °F -22.3 °F -5.8 °F 78% 30.08 in 7.0 mi NNW 19.6 mph 27.6 mph N/A   Clear
6:13 PM -0.4 °F -22.8 °F -5.8 °F 78% 30.09 in 5.0 mi NNW 20.7 mph 31.1 mph N/A   Haze
6:33 PM -0.4 °F -22.8 °F -5.8 °F 78% 30.10 in 4.0 mi NNW 20.7 mph - N/A   Haze
6:53 PM -0.4 °F -23.8 °F -7.6 °F 72% 30.10 in 7.0 mi NNW 23.0 mph 27.6 mph N/A   Clear
7:13 PM -0.4 °F -24.7 °F -7.6 °F 72% 30.11 in 4.0 mi NNW 25.3 mph 31.1 mph N/A   Haze
7:33 PM -0.4 °F -23.8 °F -7.6 °F 72% 30.12 in 5.0 mi NNW 23.0 mph 31.1 mph N/A   Haze
7:53 PM -0.4 °F -23.3 °F -7.6 °F 72% 30.12 in 10.0 mi North 21.9 mph 28.8 mph N/A   Clear
8:13 PM -0.4 °F -23.3 °F -7.6 °F 72% 30.12 in 10.0 mi North 21.9 mph 26.5 mph N/A   Clear
8:33 PM -0.4 °F -22.3 °F -7.6 °F 72% 30.12 in 10.0 mi North 19.6 mph - N/A   Clear
8:53 PM -2.2 °F -24.1 °F -9.4 °F 71% 30.13 in 10.0 mi NNW 18.4 mph - N/A   Clear
9:13 PM -2.2 °F -24.7 °F -9.4 °F 71% 30.13 in 10.0 mi NNW 19.6 mph - N/A   Clear
9:33 PM -2.2 °F -24.1 °F -9.4 °F 71% 30.14 in 10.0 mi NNW 18.4 mph - N/A   Clear
9:53 PM -2.2 °F -22.9 °F -9.4 °F 71% 30.15 in 10.0 mi NNW 16.1 mph - N/A   Clear
10:13 PM -2.2 °F -23.5 °F -9.4 °F 71% 30.14 in 10.0 mi North 17.3 mph - N/A   Clear
10:33 PM -2.2 °F -23.5 °F -9.4 °F 71% 30.14 in 10.0 mi North 17.3 mph 23.0 mph N/A   Clear
10:53 PM -4.0 °F -25.2 °F -11.2 °F 71% 30.14 in 10.0 mi NNW 16.1 mph - N/A   Clear
11:13 PM -4.0 °F -25.2 °F -11.2 °F 71% 30.13 in 10.0 mi NNW 16.1 mph - N/A   Clear
11:33 PM -5.8 °F -26.8 °F -11.2 °F 77% 30.13 in 10.0 mi NNW 15.0 mph - N/A   Clear
11:54 PM -5.8 °F -24.4 °F -11.2 °F 77% 30.14 in 10.0 mi North 11.5 mph - N/A   Clear